Regional Weather Roundup
Issued by NWS Charleston, SC

Current Version | Previous Version | Graphics & Text | Print | Product List | Glossary On
Versions: 1 2 3 4 5 6 7 8 9 10 11 12 13 14 15 16 17 18 19 20 21 22 23 24 25 26 27 28 29 30 31 32 33 34 35 36 37 38 39 40 41 42 43 44 45 46 47 48 49 50
000 ASUS42 KCHS 201327 RWRCHS REGIONAL WEATHER ROUNDUP NATIONAL WEATHER SERVICE CHARLESTON SC 800 AM EST MON NOV 20 2017 NOTE: "FAIR" INDICATES FEW OR NO CLOUDS BELOW 12,000 FEET WITH NO SIGNIFICANT WEATHER AND/OR OBSTRUCTIONS TO VISIBILITY. NOT ALL STATIONS ARE QUALITY CONTROLLED. USE DATA WITH CAUTION... ESPECIALLY DEWPOINT OBSERVATIONS. SCZ027-030-031-034>040-042>050-201400- ...SOUTHEAST SOUTH CAROLINA... CITY SKY/WX TMP DP RH WIND PRES REMARKS N CHARLESTON SUNNY 42 35 76 NE5 30.25R WATERFRONT PRK NOT AVBL JOHNS ISLAND FAIR 48 32 53 N8 30.25R PINOPOLIS N/A 45 34 65 E7 30.17R MONCKS CORNER FAIR 41 34 75 CALM 30.26R SUMMERVILLE FAIR 34 32 93 N3 30.27R BEAUFORT MCAS NOT AVBL BEAUFORT ARPT FAIR 46 34 61 NE13 30.24R HILTON HEAD IS SUNNY N/A N/A N/A N7 30.23R WALTERBORO SUNNY 37 34 87 CALM 30.28R ALLENDALE FAIR 39 32 75 CALM 30.25R ...SOUTHERN MIDLANDS AND PEE DEE... CITY SKY/WX TMP DP RH WIND PRES REMARKS GEORGETOWN FAIR 36 34 93 CALM 30.27R KINGSTREE FAIR 34 32 93 CALM 30.27R ORANGEBURG SUNNY 33 32 96 CALM 30.26R BARNWELL N/A 37 32 81 CALM 30.26R AIKEN FAIR 32 30 93 CALM 30.28R MANNING FAIR 32 32 100 MISG 30.26S COLUMBIA PTCLDY 33 31 92 CALM 30.25R SUMTER SUNNY 34 30 83 CALM 30.23R FLORENCE SUNNY 35 30 82 N3 30.26R MYRTLE BEACH SUNNY 40 32 73 N7 30.26R WCI 35 N MYRTLE BEACH SUNNY 39 31 72 N6 30.24R WCI 35 $$ GAZ063-065-086>088-099>101-113>116-118-119-134>141-150-201400- ...SOUTHEAST GEORGIA... CITY SKY/WX TMP DP RH WIND PRES REMARKS SAVANNAH ARPT MOSUNNY 42 36 79 NE8 30.23R HUNTER AAF SUNNY 44 35 72 NE5 30.20R FORT STEWART SUNNY 38 33 80 CALM 30.22R STATESBORO SUNNY 41 32 69 NE3 30.25R SYLVANIA SUNNY 42 35 78 E5 30.25R CLAXTON FAIR 35 34 97 CALM 30.25R ...CSRA...CENTRAL AND FAR SOUTHEAST GEORGIA... CITY SKY/WX TMP DP RH WIND PRES REMARKS THOMSON CLEAR 30 28 91 CALM 30.30R AUGUSTA-BUSH CLEAR 31 30 96 CALM 30.26R AUGUSTA-DANIEL CLEAR 39 32 76 CALM 30.25R SWAINSBORO FAIR 41 34 75 NE7 30.25R VIDALIA CLEAR 41 36 81 NE5 30.25R EASTMAN FAIR 35 29 81 CALM 30.28R HAZLEHURST FAIR 39 31 73 CALM 30.23R ALMA SUNNY 39 33 79 VRB3 30.22R WAYCROSS CLOUDY 41 33 75 NE7 30.23R JESUP FAIR 43 34 70 CALM 30.23R BAXLEY FAIR 37 36 93 NE3 30.23R BRUNSWICK SUNNY 45 37 76 N6 30.21R SAINT SIMONS SUNNY 45 41 86 N7 30.19R $$ SCZ027-028-034-036>038-045-046-048>050-GAZ119-141-201400- ...LAKE AND SUPPLEMENTAL COASTAL OBSERVATIONS... STATION/POSITION TIME TEMP WIND PRES WAVE SWELL AIR SEA DIR/SP/G HT/PER HT/PER/DIR (UTC) (F) (DEG/KT/KT) (MB) (FT/S) (FT/S/D) WINYAH BAY 1245 38 330/ 4 1024.0R LAKE MURRAY 1220 37 CALM / 2 1023.4R ACE BASIN NERRS 1245 40 10/ 1 1024.0R FORT PULASKI 1300 50 61 50/ 12/ 15 1023.7 SAPELO ISLAND 1300 49 10/ 9 1023.0 $$ ANZ835-935-AMZ111-154-330-350-352-354-370-450-454-472-201400- ...C-MAN AND BUOY OBSERVATIONS... STATION/POSITION TIME TEMP WIND PRES WAVE SWELL AIR SEA DIR/SP/G HT/PER HT/PER/DIR (UTC) (F) (DEG/KT/KT) (MB) (FT/S) (FT/S/D) BUOY 41004 1300 57 73 30/ 16/ 19 1022.9 BUOY 41008 1250 61 67 60/ 16/ 19 1021.9R 3/ 5 FOLLY BEACH CMAN 1300 50 30/ 13/ 16 1024.3R CAPERS NEARSHORE 1308 49 63 30/ 16/ 23 1023.4R FRIPP NEARSHORE 1308 53 62 50/ 12/ 23 1023.0R STATION/POSITION TIME TEMP WIND PRES WAVE SWELL AIR SEA DIR/SP/G HT/PER HT/PER/DIR (UTC) (F) (DEG/KT/KT) (MB) (FT/S) (FT/S/D) 5E ST. MARYS GA 1300 67 N/A 4/ 5 FRYING PAN BUOY 1300 53 70 10/ 16/ 19 1023.1 BUOY 41025 1300 50 67 320/ 16/ 19 1022.9 CAPE LOOKOUT NC 1300 340/ 17/ 20 1023.9R BUOY 41002 1250 65 76 360/ 16/ 19 1019.9R 7/ 7 3/300/ 8 BUOY 41010 NOT AVBL ST AUGUSTINE FL 1300 63 67 30/ 15/ 17 1021.0R $$

USA.gov is the U.S. government's official web portal to all federal, state and local government web resources and services.